SCP
-0 -0 -0 -0 -0 -0 -0 -0 -1 -1 -0 -0 -0 -0 0 0 0 0 0 0 0 0 -0 -0 -0 -0 -0 -0 -0 0 0 0 0
-0 -0 -0 -0 -0 -0 -0 -0 -1 -2 -1 -1 -1 -1 0 0 0 0 0 0 0 0 0 0 -0 -0 -0 -0 -0 0 0 0 0
-0 -0 -0 -0 -0 -0 -0 -0 -1 -1 -2 -1 -2 -1 -0 -0 0 0 0 0 0 0 0 -0 -0 -0 -0 -0 -0 -0 0 0 0
-0 -0 -0 -0 -0 0 -0 -0 -1 -1 -1 -1 -1 -1 -1 -0 -0 -0 0 0 0 0 -0 -0 -0 -0 -0 -0 -0 -0 0 0 0
-0 0 0 -0 -0 -0 0 -0 -1 -1 -1 -1 -1 -1 -1 -1 -0 -0 0 0 0 0 -0 -0 -0 -0 -0 -0 -0 0 0 0 0
0 0 0 0 0 0 -0 -0 -0 -1 -1 -2 -1 -1 -1 -1 -1 -0 -0 0 -0 0 -0 -0 -0 -0 -0 -0 -0 0 0 0 0
0 0 0 0 0 0 0 -0 -0 -0 -0 -1 -1 -1 -1 -1 -1 -1 -0 -0 -0 0 0 0 -0 -0 -0 -0 -0 -0 0 0 0
0 0 0 0 0 0 0 0 0 0 1 1 -0 -1 -0 -1 -1 -0 0 -0 0 0 0 0 0 0 -0 -0 -0 0 0 0 0
0 0 0 0 -0 0 0 0 0 0 0 0 -1 -0 -0 0 0 0 0 0 0 0 1 1 1 0 0 -0 0 0 0 0 0
0 0 0 0 0 0 0 0 1 1 0 2 1 1 2 1 1 0 0 1 1 1 1 2 1 1 0 0 0 0 0 0 0
0 0 0 0 0 0 0 0 1 1 2 2 3 2 3 2 2 1 1 1 1 1 2 1 1 1 0 1 1 0 0 0 1
0 0 0 0 0 0 0 0 1 1 2 3 3 3 3 3 2 2 2 1 1 2 3 3 2 1 1 1 1 0 0 0 0
0 0 0 0 0 1 1 0 1 1 1 2 3 3 2 4 4 4 3 3 2 3 3 4 3 2 1 1 1 0 0 0 0
0 1 1 0 0 0 1 2 2 1 1 2 2 1 2 3 5 5 4 5 6 4 4 4 4 3 2 1 1 0 0 0 0
0 1 2 1 0 0 0 1 4 3 2 1 2 3 3 4 5 9 11 8 8 7 6 5 4 3 2 1 0 0 0 0 0
4 4 5 6 2 4 6 1 3 5 3 3 5 5 6 8 9 10 12 13 13 11 7 6 4 3 1 0 0 0 0 0 0
6 5 5 5 7 7 8 7 6 6 8 8 12 10 17 20 18 21 18 16 16 11 7 4 3 1 1 1 1 0 0 0 0
5 4 5 4 6 7 8 10 11 13 13 16 24 29 28 24 15 8 0 0 5 4 1 2 2 1 1 1 0 0 0 0 0
3 4 4 4 4 4 4 5 6 9 15 15 14 9 6 4 0 0 0 0 0 0 0 0 0 0 0 0 0 0 0 0 0
2 3 4 3 3 3 2 2 2 3 2 4 4 2 1 0 0 0 0 0 0 0 0 0 0 0 0 0 0 0 0 0 0
Wind_Speed_500mb
80 90 100 105 116 120 122 121 118 114 107 102 97 90 80 68 62 67 62 58 60 55 53 47 38 37 38 36 36 34 32 25 23
78 96 99 113 122 123 123 123 124 119 113 107 101 95 84 74 66 69 71 64 58 58 51 44 39 39 37 40 40 34 35 31 28
87 90 102 107 105 123 123 122 125 121 115 112 102 97 88 76 69 70 77 70 72 66 55 50 49 45 44 39 39 35 34 35 34
90 89 98 103 114 118 124 122 120 122 119 115 110 100 92 81 73 72 75 81 76 77 71 61 62 58 54 50 48 45 43 40 41
94 76 88 94 106 104 107 112 113 121 119 116 113 103 95 87 78 74 76 81 86 82 82 78 71 65 63 56 53 56 51 46 48
57 62 81 64 75 87 107 113 118 119 118 118 112 109 100 93 88 83 78 81 84 89 87 86 86 75 71 69 63 60 59 54 50
76 88 59 61 72 81 105 114 120 122 117 118 114 112 106 98 94 87 83 82 85 89 88 92 88 92 86 77 71 68 67 63 55
59 83 68 61 76 98 103 113 116 122 118 117 117 116 109 106 96 86 87 88 87 88 90 89 91 91 89 85 80 77 73 68 63
66 73 69 66 87 96 116 118 117 126 123 119 118 119 113 104 101 99 95 93 91 88 88 89 90 91 91 87 83 79 76 68 67
54 75 61 39 62 101 112 126 129 126 121 120 118 121 117 112 105 103 101 97 95 92 90 86 86 84 82 80 80 77 74 68 68
63 47 39 30 35 92 117 125 124 121 118 118 118 119 118 115 108 104 102 99 97 93 90 86 78 74 70 73 74 71 68 62 61
37 28 29 27 34 44 82 95 100 113 111 114 116 116 115 117 112 104 100 100 97 92 87 80 72 65 64 64 62 55 57 56 60
29 41 42 42 31 54 55 75 93 99 96 113 115 116 114 113 116 110 101 93 92 89 77 66 61 60 59 52 53 49 48 46 43
10 11 32 54 52 60 67 51 80 92 99 106 103 110 103 109 110 115 105 96 90 86 75 64 60 60 55 51 47 44 39 38 34
7 7 12 14 27 53 57 61 62 72 94 84 83 99 108 105 109 113 106 100 91 85 79 67 68 58 51 48 42 35 29 31 31
32 21 14 16 25 31 49 56 65 78 77 83 92 102 102 103 99 97 98 97 95 88 75 75 63 55 46 48 38 31 28 25 28
27 23 21 25 32 37 42 54 67 77 81 89 102 102 100 97 96 89 89 92 90 86 79 72 62 55 47 39 33 31 30 29 32
28 18 12 11 16 26 38 46 56 70 83 83 84 96 97 93 88 87 88 89 87 74 63 78 65 54 47 49 38 28 32 26 26
29 21 15 10 6 3 6 17 29 37 57 70 79 90 88 85 92 85 80 80 57 41 36 19 33 36 41 39 35 29 27 22 26
28 22 19 13 11 9 9 11 10 12 31 57 63 60 61 61 55 47 54 42 31 6 18 44 39 41 36 28 27 30 31 26 26
Wind_Direction_500mb
204 202 203 205 209 213 213 216 216 217 217 216 216 218 223 227 231 224 219 213 220 225 229 232 234 241 237 231 223 228 224 223 222
202 203 203 205 212 215 216 216 219 218 217 218 219 219 221 224 227 223 216 210 216 223 227 232 238 241 232 227 226 229 230 225 218
201 201 203 208 208 212 217 219 221 220 222 218 220 221 221 221 226 225 219 215 218 225 227 228 230 236 228 223 226 233 236 230 222
204 196 199 205 212 216 219 219 218 221 221 220 219 220 220 219 223 225 221 219 219 224 227 230 233 235 233 232 232 235 241 240 228
206 197 198 207 213 211 209 212 213 219 221 223 222 220 219 220 221 225 223 225 222 222 227 231 237 237 238 240 238 238 242 247 238
195 197 211 213 212 204 208 213 215 218 221 223 225 221 219 219 220 223 225 226 227 225 224 230 234 236 237 240 241 241 244 248 249
199 205 226 235 223 213 211 218 217 220 223 225 225 225 220 220 221 222 225 227 228 230 229 230 231 237 241 243 246 247 248 250 251
209 196 204 209 238 215 217 216 218 221 222 222 224 225 224 222 222 225 227 228 229 232 232 233 236 237 241 243 246 251 251 251 254
198 206 211 206 220 223 212 216 219 222 222 224 223 225 227 226 225 225 228 230 231 232 235 235 236 239 241 244 249 254 257 256 258
220 209 208 217 224 208 209 214 221 218 221 222 224 225 226 227 227 227 229 230 232 235 236 237 237 239 242 246 250 255 258 258 257
227 222 244 192 202 206 209 215 217 220 220 220 224 225 224 227 227 229 230 231 233 234 237 238 238 239 244 247 250 253 256 258 258
223 209 200 193 200 218 213 216 222 219 218 221 223 225 226 226 228 228 230 231 231 232 234 236 238 241 243 245 248 249 250 251 253
200 219 220 230 232 215 212 228 218 220 224 223 224 228 232 230 229 229 229 231 231 231 231 234 235 236 239 242 241 241 246 247 250
161 183 211 225 225 216 208 218 221 222 221 221 231 234 232 231 231 230 231 231 230 230 228 226 228 231 234 237 237 237 240 240 235
141 194 222 241 244 240 230 218 220 222 223 226 230 232 229 229 228 227 227 228 228 226 226 223 222 224 227 229 230 229 234 240 244
127 149 193 229 249 244 241 238 233 231 230 228 228 227 227 226 227 224 227 226 223 221 222 218 220 215 220 225 222 227 221 224 232
124 131 159 193 214 226 236 243 247 242 239 230 223 220 219 222 221 215 217 219 221 220 217 215 200 213 205 203 214 211 218 219 212
119 131 147 190 210 220 225 227 237 240 236 228 210 210 204 202 207 205 204 205 203 218 215 213 203 186 195 196 200 210 216 200 212
99 99 87 63 63 9 289 235 218 203 219 216 209 202 195 192 191 195 204 190 192 210 155 172 166 172 186 163 156 175 202 204 212
94 85 74 56 27 348 288 264 233 186 236 206 192 202 202 204 216 213 180 155 125 93 201 190 169 160 163 166 157 179 179 177 191
Wind_Speed_850mb
80 90 100 105 116 120 122 121 118 114 107 102 97 90 80 68 62 67 62 58 60 55 53 47 38 37 38 36 36 34 32 25 23
78 96 99 113 122 123 123 123 124 119 113 107 101 95 84 74 66 69 71 64 58 58 51 44 39 39 37 40 40 34 35 31 28
87 90 102 107 105 123 123 122 125 121 115 112 102 97 88 76 69 70 77 70 72 66 55 50 49 45 44 39 39 35 34 35 34
90 89 98 103 114 118 124 122 120 122 119 115 110 100 92 81 73 72 75 81 76 77 71 61 62 58 54 50 48 45 43 40 41
94 76 88 94 106 104 107 112 113 121 119 116 113 103 95 87 78 74 76 81 86 82 82 78 71 65 63 56 53 56 51 46 48
57 62 81 64 75 87 107 113 118 119 118 118 112 109 100 93 88 83 78 81 84 89 87 86 86 75 71 69 63 60 59 54 50
76 88 59 61 72 81 105 114 120 122 117 118 114 112 106 98 94 87 83 82 85 89 88 92 88 92 86 77 71 68 67 63 55
59 83 68 61 76 98 103 113 116 122 118 117 117 116 109 106 96 86 87 88 87 88 90 89 91 91 89 85 80 77 73 68 63
66 73 69 66 87 96 116 118 117 126 123 119 118 119 113 104 101 99 95 93 91 88 88 89 90 91 91 87 83 79 76 68 67
54 75 61 39 62 101 112 126 129 126 121 120 118 121 117 112 105 103 101 97 95 92 90 86 86 84 82 80 80 77 74 68 68
63 47 39 30 35 92 117 125 124 121 118 118 118 119 118 115 108 104 102 99 97 93 90 86 78 74 70 73 74 71 68 62 61
37 28 29 27 34 44 82 95 100 113 111 114 116 116 115 117 112 104 100 100 97 92 87 80 72 65 64 64 62 55 57 56 60
29 41 42 42 31 54 55 75 93 99 96 113 115 116 114 113 116 110 101 93 92 89 77 66 61 60 59 52 53 49 48 46 43
10 11 32 54 52 60 67 51 80 92 99 106 103 110 103 109 110 115 105 96 90 86 75 64 60 60 55 51 47 44 39 38 34
7 7 12 14 27 53 57 61 62 72 94 84 83 99 108 105 109 113 106 100 91 85 79 67 68 58 51 48 42 35 29 31 31
32 21 14 16 25 31 49 56 65 78 77 83 92 102 102 103 99 97 98 97 95 88 75 75 63 55 46 48 38 31 28 25 28
27 23 21 25 32 37 42 54 67 77 81 89 102 102 100 97 96 89 89 92 90 86 79 72 62 55 47 39 33 31 30 29 32
28 18 12 11 16 26 38 46 56 70 83 83 84 96 97 93 88 87 88 89 87 74 63 78 65 54 47 49 38 28 32 26 26
29 21 15 10 6 3 6 17 29 37 57 70 79 90 88 85 92 85 80 80 57 41 36 19 33 36 41 39 35 29 27 22 26
28 22 19 13 11 9 9 11 10 12 31 57 63 60 61 61 55 47 54 42 31 6 18 44 39 41 36 28 27 30 31 26 26
Wind_Direction_850mb
204 202 203 205 209 213 213 216 216 217 217 216 216 218 223 227 231 224 219 213 220 225 229 232 234 241 237 231 223 228 224 223 222
202 203 203 205 212 215 216 216 219 218 217 218 219 219 221 224 227 223 216 210 216 223 227 232 238 241 232 227 226 229 230 225 218
201 201 203 208 208 212 217 219 221 220 222 218 220 221 221 221 226 225 219 215 218 225 227 228 230 236 228 223 226 233 236 230 222
204 196 199 205 212 216 219 219 218 221 221 220 219 220 220 219 223 225 221 219 219 224 227 230 233 235 233 232 232 235 241 240 228
206 197 198 207 213 211 209 212 213 219 221 223 222 220 219 220 221 225 223 225 222 222 227 231 237 237 238 240 238 238 242 247 238
195 197 211 213 212 204 208 213 215 218 221 223 225 221 219 219 220 223 225 226 227 225 224 230 234 236 237 240 241 241 244 248 249
199 205 226 235 223 213 211 218 217 220 223 225 225 225 220 220 221 222 225 227 228 230 229 230 231 237 241 243 246 247 248 250 251
209 196 204 209 238 215 217 216 218 221 222 222 224 225 224 222 222 225 227 228 229 232 232 233 236 237 241 243 246 251 251 251 254
198 206 211 206 220 223 212 216 219 222 222 224 223 225 227 226 225 225 228 230 231 232 235 235 236 239 241 244 249 254 257 256 258
220 209 208 217 224 208 209 214 221 218 221 222 224 225 226 227 227 227 229 230 232 235 236 237 237 239 242 246 250 255 258 258 257
227 222 244 192 202 206 209 215 217 220 220 220 224 225 224 227 227 229 230 231 233 234 237 238 238 239 244 247 250 253 256 258 258
223 209 200 193 200 218 213 216 222 219 218 221 223 225 226 226 228 228 230 231 231 232 234 236 238 241 243 245 248 249 250 251 253
200 219 220 230 232 215 212 228 218 220 224 223 224 228 232 230 229 229 229 231 231 231 231 234 235 236 239 242 241 241 246 247 250
161 183 211 225 225 216 208 218 221 222 221 221 231 234 232 231 231 230 231 231 230 230 228 226 228 231 234 237 237 237 240 240 235
141 194 222 241 244 240 230 218 220 222 223 226 230 232 229 229 228 227 227 228 228 226 226 223 222 224 227 229 230 229 234 240 244
127 149 193 229 249 244 241 238 233 231 230 228 228 227 227 226 227 224 227 226 223 221 222 218 220 215 220 225 222 227 221 224 232
124 131 159 193 214 226 236 243 247 242 239 230 223 220 219 222 221 215 217 219 221 220 217 215 200 213 205 203 214 211 218 219 212
119 131 147 190 210 220 225 227 237 240 236 228 210 210 204 202 207 205 204 205 203 218 215 213 203 186 195 196 200 210 216 200 212
99 99 87 63 63 9 289 235 218 203 219 216 209 202 195 192 191 195 204 190 192 210 155 172 166 172 186 163 156 175 202 204 212
94 85 74 56 27 348 288 264 233 186 236 206 192 202 202 204 216 213 180 155 125 93 201 190 169 160 163 166 157 179 179 177 191